Vorticity
2 -11 9 8 14 16 4 15 1 18 10 -8 24 -11 -1 -9 -9 -1 14 17 2 9 9 4 3 2 4 5 7 6 6 5 5 5 6 5 5 5 5 5 5 6 7 7 7 7 7 7 7
4 5 4 -10 14 3 27 18 30 15 10 -15 -2 5 9 -5 -0 -3 2 1 7 4 9 8 4 3 5 7 6 6 5 5 5 5 5 5 6 7 7 7 8 8 8 9 8 8 7 6 7
-1 2 14 -2 14 6 26 -3 -14 8 42 -5 -2 2 -0 7 6 -2 -2 1 6 9 10 8 6 4 6 6 6 5 5 5 5 5 6 7 7 6 7 8 9 9 8 8 8 8 8 7 7
5 3 8 -10 -7 11 -6 25 -19 6 14 14 11 -2 6 -1 2 7 6 4 2 7 7 7 6 6 7 5 5 5 5 5 5 6 7 7 7 8 8 6 6 6 6 7 8 8 8 8 8
9 2 10 7 0 7 -13 -4 12 -6 -16 -17 5 12 -10 12 11 12 7 6 11 9 8 7 6 7 5 5 5 5 5 6 6 7 7 7 6 5 5 5 5 6 6 6 6 6 7 7 8
3 -3 -3 3 0 7 15 -11 -11 32 6 16 0 7 7 13 0 10 7 7 8 7 6 6 6 6 5 5 5 5 6 6 7 6 6 5 5 4 6 5 5 5 5 5 5 6 6 7 7
-6 -4 1 4 6 24 -20 -1 21 24 -5 -2 -3 7 6 6 6 8 7 10 7 7 6 6 6 6 5 6 5 5 6 7 7 5 4 4 5 5 6 5 6 6 6 6 5 5 5 4 5
3 4 0 3 9 -3 -8 -7 -13 25 6 6 -2 -4 5 13 15 12 9 10 6 4 5 6 8 4 5 6 5 5 6 7 6 5 4 5 4 5 4 5 5 5 5 5 4 4 4 4 5
2 6 2 1 9 13 -3 12 11 6 16 11 -4 0 -2 5 5 8 12 11 6 7 7 6 7 5 6 5 5 6 6 6 5 4 4 4 4 3 4 4 4 3 3 3 3 4 3 4 4
5 1 4 3 -1 8 0 -0 2 1 15 9 -2 2 -1 -1 19 12 7 10 9 9 8 8 7 5 5 5 5 6 6 6 5 4 4 3 3 3 2 1 2 3 4 4 4 4 4 4 4
1 -7 2 4 3 1 6 5 3 -7 5 5 1 1 -1 3 13 11 8 6 5 8 8 7 6 5 5 5 5 6 6 6 5 4 3 3 2 2 1 2 4 5 6 5 5 5 6 7 8
0 4 4 1 6 6 5 4 6 13 14 10 -2 6 4 4 10 10 8 6 7 6 9 6 5 5 5 6 5 5 7 6 5 4 3 2 2 1 1 2 3 5 6 6 5 6 7 7 7
-2 3 4 4 5 6 7 8 7 2 3 -2 2 1 2 3 4 10 6 9 5 6 6 6 6 6 5 5 5 5 7 6 5 4 3 2 2 2 2 2 3 4 5 6 5 6 7 7 8
1 1 3 7 7 2 5 6 4 9 9 3 2 2 1 5 6 10 7 8 10 8 7 6 6 6 5 5 5 5 6 6 6 4 3 3 2 2 2 3 3 4 5 5 4 5 7 6 7
6 7 10 7 5 9 15 8 4 7 7 6 7 8 6 6 11 9 7 8 6 12 8 7 8 6 6 6 5 5 6 6 5 4 4 3 3 3 3 3 4 5 5 5 4 6 6 6 7
14 11 10 2 -0 5 8 5 7 11 6 6 14 13 11 11 8 8 7 7 7 5 6 7 6 5 5 5 6 6 5 5 6 6 5 4 4 4 4 4 5 5 5 4 4 6 6 7 7
25 -1 9 13 11 9 7 1 8 8 7 17 8 7 7 11 10 7 8 7 7 7 5 5 6 6 6 6 6 5 4 5 5 6 5 5 5 4 4 5 6 6 5 4 5 7 5 6 7
-19 23 16 5 6 11 7 8 12 11 10 7 3 11 16 18 12 11 10 10 9 8 5 5 5 6 6 7 6 4 4 5 6 6 6 5 5 5 5 6 6 5 5 3 7 5 6 6 7
-63 29 -6 23 18 -2 -2 11 2 8 11 4 8 10 4 8 12 14 10 8 8 10 7 5 7 7 6 6 5 6 6 7 7 6 5 5 5 6 5 6 6 5 4 5 6 4 6 7 6
6 -18 3 23 8 27 20 8 12 10 14 10 11 9 7 3 5 8 10 9 9 8 9 8 6 7 7 6 6 7 6 5 5 2 4 7 6 5 5 6 5 6 3 7 5 6 7 6 6
4 -3 -13 -28 -27 37 22 17 7 8 4 4 0 5 7 9 7 5 4 6 9 9 12 9 9 6 6 7 7 7 6 2 2 8 9 6 5 6 5 6 4 5 5 6 4 6 6 6 7
13 23 13 7 2 -11 7 5 -3 17 16 12 10 1 -1 -1 1 -0 6 8 6 7 7 6 7 9 7 9 8 7 6 5 5 7 2 3 7 5 5 5 6 3 7 4 5 6 6 7 7
10 -2 20 8 0 -8 -14 -1 32 22 33 13 7 11 11 14 14 12 22 17 6 3 9 6 8 10 11 10 10 8 7 7 7 1 2 5 6 5 6 5 5 5 6 3 5 6 7 7 7
51 0 14 17 28 26 6 -29 50 7 -16 -7 -3 6 22 28 25 14 1 1 18 24 11 7 7 9 11 11 12 10 9 9 7 5 5 5 5 5 6 5 4 7 4 4 6 6 7 7 6
7 15 2 9 9 12 46 33 -27 1 55 42 37 33 22 -2 5 1 7 13 7 9 15 17 6 4 8 9 11 10 11 10 7 6 4 3 6 5 5 5 5 6 3 5 6 7 8 7 5
13 -24 -38 -3 6 21 3 27 -19 43 43 -0 -1 11 -14 1 26 12 5 5 8 7 13 17 14 11 10 11 10 10 11 11 9 7 5 5 5 5 5 4 7 4 4 6 7 8 8 6 5
41 0 -8 -29 18 -3 -0 29 16 5 -0 0 19 30 28 10 9 15 18 11 24 14 13 18 19 14 12 11 9 9 10 12 10 8 6 5 5 5 5 4 7 2 5 6 7 8 7 6 4
-15 6 1 0 4 -2 19 8 -27 7 21 23 14 14 28 19 13 5 9 15 19 15 11 14 15 16 13 11 7 6 9 13 11 8 6 5 5 5 4 6 5 3 6 7 8 8 7 6 4
20 35 28 24 -58 15 4 14 3 -6 -5 5 -1 -18 10 15 14 12 10 14 14 12 14 12 12 9 6 5 6 8 8 11 10 8 6 5 4 4 5 8 2 5 6 7 8 8 7 5 6
7 -8 -18 -18 -8 5 -11 4 41 44 40 36 7 16 6 3 17 13 13 12 9 26 11 8 8 9 8 7 5 5 7 12 11 8 6 4 4 6 7 6 3 6 7 8 8 8 7 5 7
Height
3114 3115 3116 3117 3120 3117 3114 3115 3114 3116 3116 3118 3121 3121 3123 3123 3125 3129 3126 3128 3130 3130 3132 3135 3136 3137 3138 3139 3140 3141 3142 3142 3142 3143 3143 3144 3145 3145 3145 3145 3145 3145 3145 3144 3145 3144 3144 3143 3143
3114 3115 3116 3116 3116 3116 3114 3114 3111 3113 3116 3116 3118 3120 3121 3122 3123 3125 3127 3128 3129 3130 3131 3133 3134 3135 3136 3137 3138 3139 3140 3140 3141 3141 3142 3143 3143 3143 3144 3144 3144 3143 3143 3143 3143 3143 3143 3142 3141
3112 3114 3115 3112 3111 3112 3114 3110 3112 3115 3114 3112 3116 3119 3119 3120 3121 3124 3126 3126 3127 3128 3128 3130 3132 3133 3134 3135 3136 3138 3138 3139 3139 3139 3140 3141 3142 3142 3142 3142 3142 3141 3141 3141 3141 3141 3140 3140 3139
3111 3111 3112 3109 3109 3110 3108 3108 3112 3112 3113 3115 3113 3118 3117 3119 3119 3122 3124 3124 3124 3126 3127 3128 3130 3131 3131 3133 3134 3136 3138 3137 3137 3138 3139 3140 3141 3141 3141 3141 3140 3140 3139 3139 3139 3138 3138 3136 3136
3108 3107 3107 3107 3106 3109 3107 3106 3110 3113 3113 3114 3115 3113 3115 3116 3118 3121 3123 3122 3122 3123 3125 3127 3127 3128 3130 3132 3132 3135 3135 3135 3135 3136 3138 3139 3140 3140 3140 3139 3139 3138 3137 3137 3137 3136 3136 3134 3134
3103 3104 3103 3099 3101 3105 3104 3106 3109 3107 3109 3110 3111 3111 3112 3113 3117 3119 3119 3120 3120 3121 3122 3124 3124 3126 3128 3130 3133 3133 3134 3134 3134 3135 3136 3137 3139 3138 3138 3137 3137 3136 3136 3135 3134 3133 3133 3132 3132
3097 3098 3097 3096 3099 3102 3099 3105 3105 3105 3107 3106 3109 3109 3108 3111 3114 3114 3115 3116 3116 3117 3119 3120 3122 3124 3127 3128 3130 3131 3132 3132 3134 3134 3134 3135 3136 3137 3135 3135 3136 3135 3134 3133 3132 3131 3131 3130 3129
3095 3094 3092 3091 3092 3093 3097 3101 3102 3102 3103 3104 3105 3104 3106 3110 3111 3110 3112 3111 3112 3113 3116 3119 3119 3122 3124 3126 3128 3128 3129 3131 3132 3132 3133 3132 3134 3134 3134 3135 3135 3132 3132 3131 3129 3129 3128 3127 3126
3089 3088 3083 3085 3088 3087 3091 3095 3097 3098 3096 3098 3100 3101 3104 3106 3106 3105 3106 3108 3108 3111 3113 3115 3117 3119 3121 3124 3125 3126 3127 3128 3129 3130 3130 3131 3132 3132 3132 3133 3131 3131 3129 3128 3126 3126 3125 3124 3123
3081 3081 3077 3082 3085 3085 3088 3090 3092 3092 3093 3093 3095 3098 3100 3104 3102 3101 3103 3106 3105 3107 3110 3112 3114 3116 3119 3120 3122 3123 3124 3127 3127 3127 3128 3129 3130 3130 3130 3130 3129 3127 3125 3124 3123 3123 3122 3120 3119
3072 3070 3075 3077 3080 3081 3082 3083 3086 3086 3085 3086 3090 3094 3097 3098 3096 3096 3099 3101 3102 3105 3106 3108 3110 3112 3115 3118 3119 3120 3121 3125 3124 3125 3125 3126 3127 3127 3128 3127 3125 3123 3122 3121 3120 3119 3118 3117 3115
3065 3063 3067 3070 3074 3076 3075 3078 3077 3078 3081 3083 3087 3090 3089 3089 3090 3094 3096 3096 3100 3101 3102 3104 3106 3109 3111 3114 3115 3116 3120 3121 3121 3122 3122 3123 3123 3124 3124 3122 3122 3121 3120 3118 3116 3115 3114 3112 3111
3056 3057 3060 3061 3065 3066 3069 3068 3070 3070 3075 3078 3080 3080 3080 3082 3087 3089 3092 3093 3094 3095 3098 3100 3103 3105 3107 3109 3111 3113 3117 3117 3118 3118 3118 3119 3120 3121 3120 3120 3119 3117 3116 3114 3112 3111 3109 3107 3105
3050 3050 3052 3053 3057 3058 3059 3059 3060 3062 3069 3072 3071 3072 3074 3076 3080 3083 3086 3087 3088 3091 3094 3096 3098 3100 3102 3106 3108 3110 3112 3113 3114 3114 3115 3115 3116 3116 3116 3116 3114 3113 3111 3110 3108 3106 3104 3102 3100
3040 3042 3043 3043 3046 3048 3051 3047 3043 3059 3061 3064 3065 3065 3066 3069 3071 3076 3081 3082 3085 3087 3089 3091 3093 3095 3097 3102 3104 3106 3107 3108 3109 3109 3110 3111 3111 3111 3111 3110 3110 3108 3106 3104 3103 3100 3098 3096 3093
3032 3034 3031 3031 3038 3041 3043 3031 3044 3053 3052 3054 3056 3055 3057 3060 3065 3070 3073 3075 3077 3080 3083 3085 3087 3089 3092 3097 3099 3101 3102 3104 3104 3105 3105 3106 3106 3106 3105 3105 3104 3103 3101 3099 3097 3094 3092 3090 3087
3020 3015 3016 3021 3027 3032 3030 3027 3035 3042 3043 3045 3045 3046 3049 3054 3058 3061 3065 3067 3070 3074 3076 3078 3081 3084 3088 3091 3094 3095 3097 3099 3099 3100 3100 3100 3100 3100 3099 3099 3099 3097 3095 3093 3090 3088 3085 3081 3079
3003 3007 3005 3005 3015 3021 3021 3019 3026 3029 3033 3036 3037 3039 3041 3044 3049 3054 3057 3060 3063 3066 3069 3072 3075 3078 3081 3085 3087 3089 3091 3093 3094 3094 3095 3095 3094 3094 3094 3094 3093 3091 3089 3087 3083 3080 3075 3072 3070
3007 3008 3004 3005 3011 3015 3013 3015 3017 3023 3024 3027 3030 3033 3035 3037 3044 3045 3048 3051 3054 3057 3061 3064 3067 3071 3074 3076 3079 3083 3086 3088 3089 3089 3089 3089 3089 3089 3089 3088 3087 3084 3083 3080 3078 3073 3068 3063 3061
2995 2998 2999 3005 3008 3010 3009 3004 3011 3014 3015 3019 3023 3025 3027 3030 3032 3037 3039 3042 3045 3050 3054 3057 3060 3064 3066 3070 3074 3077 3080 3081 3082 3082 3082 3083 3083 3083 3083 3082 3080 3079 3076 3074 3071 3067 3062 3056 3051
2976 2982 2992 3000 3004 3006 3004 2995 2998 3002 3007 3010 3012 3017 3019 3021 3025 3028 3032 3035 3038 3042 3045 3048 3052 3057 3059 3063 3066 3069 3070 3071 3073 3077 3078 3077 3077 3077 3077 3076 3075 3073 3071 3067 3064 3060 3055 3050 3044
2966 2971 2985 2993 3002 3001 3005 2988 2986 2992 2995 2998 3004 3008 3011 3015 3018 3020 3022 3024 3028 3033 3037 3041 3045 3049 3050 3054 3058 3061 3063 3066 3071 3071 3070 3071 3071 3071 3071 3071 3069 3067 3065 3061 3056 3052 3048 3043 3038
2956 2972 2980 2988 2990 2996 2995 2997 2960 2978 2980 2985 2992 2998 3002 3007 3008 3011 3013 3017 3021 3025 3030 3035 3038 3040 3042 3046 3049 3053 3055 3059 3062 3062 3063 3065 3066 3066 3066 3065 3063 3061 3058 3054 3050 3045 3041 3036 3031
2960 2970 2977 2981 2986 2986 2975 2984 2960 2963 2968 2975 2983 2989 2993 2996 2998 3001 3005 3007 3010 3014 3019 3022 3026 3030 3034 3037 3041 3045 3048 3051 3054 3055 3057 3058 3059 3060 3060 3058 3057 3054 3051 3047 3043 3039 3034 3029 3024
2954 2961 2971 2980 2981 2960 2963 2966 2955 2956 2961 2967 2974 2980 2984 2987 2989 2991 2993 2996 3000 3003 3006 3011 3017 3021 3026 3029 3034 3036 3040 3042 3046 3048 3050 3051 3053 3053 3052 3052 3050 3047 3044 3041 3037 3033 3028 3023 3017
2938 2945 2944 2953 2956 2950 2957 2942 2938 2950 2959 2965 2966 2971 2975 2976 2978 2980 2983 2986 2991 2994 2998 3002 3007 3012 3017 3022 3026 3028 3031 3035 3038 3041 3043 3044 3045 3046 3046 3045 3042 3040 3037 3034 3030 3026 3021 3016 3010
2935 2940 2935 2941 2942 2945 2937 2934 2939 2943 2949 2955 2956 2960 2961 2966 2969 2972 2975 2978 2982 2985 2990 2994 2999 3004 3010 3014 3017 3021 3024 3027 3030 3032 3035 3038 3039 3039 3039 3038 3036 3034 3031 3027 3024 3020 3015 3009 3003
2923 2933 2940 2939 2943 2941 2928 2930 2931 2936 2942 2947 2950 2952 2954 2957 2961 2965 2968 2970 2974 2978 2982 2987 2992 2998 3004 3007 3011 3014 3017 3019 3022 3025 3028 3031 3032 3033 3032 3031 3030 3028 3024 3021 3018 3013 3008 3003 2997
2912 2915 2923 2928 2929 2929 2932 2920 2926 2932 2938 2944 2947 2948 2950 2952 2955 2958 2961 2964 2968 2971 2975 2979 2984 2989 2994 3000 3004 3008 3010 3012 3015 3018 3021 3024 3026 3026 3026 3025 3023 3020 3017 3014 3011 3006 3001 2996 2991
2901 2904 2912 2921 2924 2921 2917 2917 2921 2926 2931 2936 2940 2943 2945 2947 2949 2952 2954 2958 2961 2965 2969 2973 2978 2983 2988 2994 2998 3001 3003 3006 3009 3012 3015 3017 3018 3019 3019 3018 3016 3013 3011 3008 3004 2999 2994 2990 2983